#timestamp,LO_Frequency,Hit,StdDev 
1633723215.4,286046991.1,N
1633723235.2,286046992.0,N
1633723255.0,286046993.4,N
1633723256.0,286046993.4,N
1633723275.8,286046995.6,N
1633723295.6,286046997.3,N
1633723315.5,286047001.5,N
1633723335.3,286047003.0,N
1633723355.1,286047006.3,N
1633723375.9,286047008.0,N
1633723395.7,286047003.5,N
1633723415.6,286047007.6,N
1633723435.4,286047007.8,N
1633723455.2,286047010.0,N
1633723475.1,286047012.2,N
1633723476.0,286047012.2,N
1633723495.8,286047013.2,N
1633723515.6,286047011.3,N
1633723535.5,286047015.5,N
1633723555.3,286047020.0,N
1633723575.2,286047017.7,N
1633723595.9,286047018.5,N
1633723615.7,286047012.8,N
1633723635.6,286047013.6,N
1633723655.4,286047013.5,N
1633723675.3,286047015.4,N
1633723695.1,286047017.9,N
1633723696.0,286047017.9,N
1633723715.8,286047022.9,N
1633723735.7,286047026.4,N
1633723755.5,286047027.8,N
1633723775.3,286047021.3,N
1633723795.2,286047019.4,N
1633723815.0,286047017.4,N
1633723815.9,286047017.4,N
1633723835.8,286047018.7,N
1633723855.6,286047019.4,Y
1633723875.4,286047011.0,P
1633723895.3,286047021.4,P
1633723915.1,286047021.5,P
1633723935.9,286047019.1,Y
1633723955.7,286047001.3,P
1633723975.5,286046999.7,N
1633723995.4,286046999.2,N
1633724015.2,286046997.6,N
1633724035.1,286046997.6,N
1633724036.0,286046997.6,N
1633724055.8,286046996.2,N
1633724075.6,286046992.0,N
1633724095.5,286046990.3,N
1633724115.3,286046991.6,N
1633724135.1,286046991.1,N
1633724155.9,286046988.6,N
1633724175.7,286046988.8,N
1633724195.6,286046987.3,N
1633724215.4,286046987.8,N
1633724235.2,286046985.3,N
1633724255.1,286046988.2,N
1633724256.0,286046988.2,N
1633724275.8,286046985.5,N
1633724295.6,286046988.1,N
1633724315.5,286046985.8,N
1633724335.3,286046985.8,N
1633724355.2,286046985.6,N
1633724375.9,286046983.8,N
1633724395.7,286046986.4,N
1633724415.6,286046986.5,N
1633724435.4,286046985.7,N
1633724455.3,286046984.4,N
1633724475.1,286046981.4,N
1633724476.0,286046981.4,N
1633724495.8,286046983.0,Y
1633724515.7,286046995.9,P
1633724535.5,286046999.4,N
1633724555.4,286046998.5,N
1633724575.2,286046998.5,N
1633724595.0,286046997.7,N
1633724595.9,286046997.7,N
1633724615.8,286046998.7,N
1633724635.6,286047000.1,N
1633724655.4,286046999.9,N
1633724675.3,286046998.4,N
1633724695.1,286046996.8,N
1633724715.9,286046999.1,N
1633724735.7,286047001.9,N
1633724755.5,286047000.3,N
1633724775.4,286046999.3,N
1633724795.2,286046997.0,N
1633724815.1,286046996.7,N
1633724816.0,286046996.7,N
1633724835.8,286046996.9,N
1633724855.6,286046994.9,N
1633724875.5,286046994.0,N
1633724895.3,286046993.0,N
1633724915.1,286046992.8,N
1633724935.9,286046992.6,N
1633724955.7,286046990.8,Y
1633724975.6,286046994.7,P
1633724995.4,286046992.5,P
1633725015.2,286046994.2,P
1633725035.1,286046995.5,N
1633725036.0,286046995.5,Y
1633725055.8,286047000.2,P
1633725075.7,286047003.1,N
1633725095.5,286047003.8,N
1633725115.3,286047002.1,N
1633725135.2,286047001.7,N
1633725155.0,286047005.9,N
1633725155.9,286047005.9,N
1633725175.8,286047005.4,N
1633725195.6,286047007.2,N
1633725215.4,286047010.2,N
1633725235.3,286047006.1,N
1633725255.1,286047006.9,N
1633725275.8,286047005.0,N
1633725295.7,286047007.2,N
1633725315.5,286047004.6,N
1633725335.4,286047006.0,N
1633725355.2,286047003.6,N
1633725375.0,286047002.1,N
1633725375.9,286047002.1,N
1633725395.8,286047002.2,N
1633725415.6,286047000.0,N
1633725435.4,286047001.2,N
1633725455.3,286046996.6,N
1633725475.1,286047000.8,N
1633725495.9,286047000.3,N
1633725515.7,286047000.2,N
1633725535.5,286047000.8,N
1633725555.4,286046998.8,N
1633725575.2,286046997.9,N
1633725595.0,286046997.8,N
1633725596.0,286046997.8,N
1633725615.8,286046996.6,N
1633725635.6,286046997.4,N
1633725655.5,286046997.8,N
1633725675.3,286046997.5,N
1633725695.1,286046994.9,N
1633725715.9,286046996.8,N
1633725735.7,286046996.8,N
1633725755.6,286046997.2,N
1633725775.4,286046999.3,N
1633725795.2,286047000.4,N
1633725815.1,286046998.9,N
1633725816.0,286046998.9,N
1633725835.8,286046998.6,N
1633725855.6,286046998.7,N
1633725875.5,286047000.5,N
1633725895.3,286047000.3,N
1633725915.2,286046998.5,N
1633725935.9,286046996.6,N
1633725955.7,286046998.9,N
1633725975.6,286046999.1,N
1633725995.4,286046999.6,N
1633726015.3,286046999.2,N
1633726035.1,286046998.5,N
1633726036.0,286046998.5,N
1633726055.8,286046999.0,N
1633726075.7,286047000.6,N
1633726095.5,286047002.7,N
1633726115.3,286047002.6,N
1633726135.2,286047001.9,N
1633726155.0,286047001.6,N
1633726155.9,286047001.6,N
1633726175.8,286047002.7,N
1633726195.6,286047004.0,N
1633726215.4,286047003.9,N
1633726235.3,286047002.7,N
1633726255.1,286047004.2,N
1633726275.9,286047000.6,N
1633726295.7,286047002.3,N
1633726315.5,286047001.4,N
1633726335.4,286047003.9,N
1633726355.2,286047003.8,N
1633726375.0,286047002.2,N
1633726376.0,286047002.2,N
1633726395.8,286047003.9,N
1633726415.6,286047003.3,N
1633726435.5,286047002.9,N
1633726455.3,286047007.0,Y
1633726475.1,286047007.3,P
1633726495.9,286047008.6,N
1633726515.7,286047007.2,N
1633726535.6,286047005.5,N
1633726555.4,286047004.3,N
1633726575.2,286047004.0,N
1633726595.1,286047003.5,N
1633726596.0,286047003.5,N
1633726615.8,286047001.7,N
1633726635.6,286047003.9,N
1633726655.5,286047002.6,N
1633726675.3,286047000.7,N
1633726695.2,286047002.0,N
1633726715.9,286047001.4,N
1633726735.7,286047004.9,N
1633726755.6,286047007.6,Y
1633726775.4,286047001.6,P
1633726795.3,286047001.5,N
